| ตารางข้อมูล | 4529T1 | 4529T2 | 4529T3 | 4529T4 | TH20402 | TH452-9A | TH452-9D | TH814 | ค้นข้อมูล1 | ค้นข้อมูล2 | ค่าสูงสุด-ต่ำสุด |  

Select Sensor -->| 20402 | 452-9A | 452-9D | 4529T1 | 4529T2 | 4529T3 | 4529T4 | 814 | หน้าจอย่อ | 4529 |
Data of room  4529T1

IDRoomDate  Temp  Humidity
 184209  4529T1  2021-03-03 09:59:28  29.9  0.0 
 184204  4529T1  2021-03-03 09:39:20  29.5  0.0 
 184199  4529T1  2021-03-03 09:19:13  29.8  0.0 
 184194  4529T1  2021-03-03 08:59:06  28.7  0.0 
 184189  4529T1  2021-03-03 08:38:58  27.8  0.0 
 184184  4529T1  2021-03-03 08:18:51  26.3  0.0 
 184179  4529T1  2021-03-03 07:58:44  26.1  0.0 
 184174  4529T1  2021-03-03 07:38:37  24.6  0.0 
 184169  4529T1  2021-03-03 07:18:29  24.6  0.0 
 184164  4529T1  2021-03-03 06:58:22  24.5  0.0 
 184159  4529T1  2021-03-03 06:38:15  24.2  0.0 
 184154  4529T1  2021-03-03 06:18:08  24.6  0.0 
 184149  4529T1  2021-03-03 05:58:00  24.5  0.0 
 184144  4529T1  2021-03-03 05:37:53  25.1  0.0 
 184139  4529T1  2021-03-03 05:17:46  25.1  0.0 
 184134  4529T1  2021-03-03 04:57:38  25.1  0.0 
 184129  4529T1  2021-03-03 04:37:31  24.9  0.0 
 184124  4529T1  2021-03-03 04:17:24  25.0  0.0 
 184119  4529T1  2021-03-03 03:57:17  25.0  0.0 
 184114  4529T1  2021-03-03 03:37:09  25.3  0.0 
 184109  4529T1  2021-03-03 03:17:02  25.0  0.0 
 184104  4529T1  2021-03-03 02:56:55  25.0  0.0 
 184099  4529T1  2021-03-03 02:36:48  25.4  0.0 
 184094  4529T1  2021-03-03 02:16:40  25.5  0.0 
 184089  4529T1  2021-03-03 01:56:33  25.1  0.0 
 184084  4529T1  2021-03-03 01:36:26  26.3  0.0 
 184079  4529T1  2021-03-03 01:16:18  26.5  0.0 
 184074  4529T1  2021-03-03 00:56:11  26.4  0.0 
 184069  4529T1  2021-03-03 00:36:04  26.4  0.0 
 184064  4529T1  2021-03-03 00:15:56  26.7  0.0 
 184059  4529T1  2021-03-02 23:55:49  26.6  0.0 
 184054  4529T1  2021-03-02 23:35:42  26.6  0.0 
 184049  4529T1  2021-03-02 23:15:35  26.8  0.0 
 184044  4529T1  2021-03-02 22:55:27  26.8  0.0 
 184039  4529T1  2021-03-02 22:35:20  27.0  0.0 
 184034  4529T1  2021-03-02 22:15:13  27.0  0.0 
 184029  4529T1  2021-03-02 21:55:05  27.0  0.0 
 184024  4529T1  2021-03-02 21:34:58  27.0  0.0 
 184019  4529T1  2021-03-02 21:14:51  27.0  0.0 
 184014  4529T1  2021-03-02 20:54:44  27.0  0.0 
 184009  4529T1  2021-03-02 20:34:36  27.1  0.0 
 184004  4529T1  2021-03-02 20:14:29  27.2  0.0 
 183999  4529T1  2021-03-02 19:54:22  27.3  0.0 
 183994  4529T1  2021-03-02 19:34:14  27.3  0.0 
 183989  4529T1  2021-03-02 19:14:07  27.5  0.0 
 183984  4529T1  2021-03-02 18:54:00  27.6  0.0 
 183979  4529T1  2021-03-02 18:33:53  27.8  0.0 
 183974  4529T1  2021-03-02 18:13:45  28.3  0.0 
 183968  4529T1  2021-03-02 17:53:38  28.5  0.0 
 183963  4529T1  2021-03-02 17:33:31  28.9  0.0 
 183958  4529T1  2021-03-02 17:13:24  28.9  0.0 
 183953  4529T1  2021-03-02 16:53:16  29.1  0.0 
 183948  4529T1  2021-03-02 16:33:09  29.6  0.0 
 183943  4529T1  2021-03-02 16:13:02  29.6  0.0 
 183938  4529T1  2021-03-02 15:52:54  29.7  0.0 
 183933  4529T1  2021-03-02 15:32:47  30.3  0.0 
 183928  4529T1  2021-03-02 15:12:40  30.1  0.0 
 183923  4529T1  2021-03-02 14:52:32  30.8  0.0 
 183918  4529T1  2021-03-02 14:32:25  30.6  0.0 
 183913  4529T1  2021-03-02 14:12:18  31.0  0.0 
 183908  4529T1  2021-03-02 13:52:11  30.0  0.0 
 183903  4529T1  2021-03-02 13:32:03  30.8  0.0 
 183898  4529T1  2021-03-02 13:11:56  30.3  0.0 
 183893  4529T1  2021-03-02 12:51:48  31.1  0.0 
 183888  4529T1  2021-03-02 12:31:41  30.5  0.0 
 183883  4529T1  2021-03-02 12:11:34  30.3  0.0 
 183878  4529T1  2021-03-02 11:51:25  29.9  0.0 
 183873  4529T1  2021-03-02 11:31:17  30.8  0.0 
 183868  4529T1  2021-03-02 11:11:09  30.5  0.0 
 183863  4529T1  2021-03-02 10:51:02  30.9  0.0 
 183858  4529T1  2021-03-02 10:30:54  30.6  0.0 
 183853  4529T1  2021-03-02 10:10:47  30.0  0.0 

Data every 20 minute.


Data of room  4529T1


Data every 20 minute.

  Show Graph